N2QDK-1 Weather Reports


Display with metric or nautical units.
time (UTC)temp
F
wind
direction
speed
MPH
gust
MPH
rain 1hr
in
rain 24hr
in
rain mn
in
humidity
%
barometer
mb
20240612152515 72 0.0 2.0 0.00 0.00 0.00 56 1017.4
20240612151515 71 0.0 1.0 0.00 0.00 0.00 57 1017.4
20240612150515 69 0.0 1.0 0.00 0.00 0.00 62 1017.6
20240612145516 69 0.0 2.0 0.00 0.00 0.00 60 1017.6
20240612144516 68 0.0 2.0 0.00 0.00 0.00 62 1017.5
20240612143515 67 0.0 1.0 0.00 0.00 0.00 64 1017.5
20240612142515 67 0.0 1.0 0.00 0.00 0.00 64 1017.6
20240612141515 67 0.0 1.0 0.00 0.00 0.00 64 1017.7
20240612140515 67 0.0 1.0 0.00 0.00 0.00 65 1017.7
20240612135516 67 0.0 2.0 0.00 0.00 0.00 63 1017.8
20240612134515 67 0.0 1.0 0.00 0.00 0.00 65 1017.8
20240612133516 67 0.0 4.0 0.00 0.00 0.00 64 1017.8
20240612132515 68 0.0 1.0 0.00 0.00 0.00 63 1017.8
20240612131515 67 0.0 2.0 0.00 0.00 0.00 67 1017.8
20240612130515 65 0.0 1.0 0.00 0.00 0.00 70 1017.7
20240612125515 64 0.0 2.0 0.00 0.00 0.00 70 1017.7
20240612124516 64 0.0 2.0 0.00 0.00 0.00 70 1017.6
20240612123515 64 0.0 1.0 0.00 0.00 0.00 71 1017.6
20240612122515 63 0.0 1.0 0.00 0.00 0.00 71 1017.7
20240612121515 63 0.0 1.0 0.00 0.00 0.00 73 1017.8
20240612120515 63 0.0 2.0 0.00 0.00 0.00 71 1017.8
20240612115516 63 0.0 2.0 0.00 0.00 0.00 73 1017.7
20240612114516 62 0.0 1.0 0.00 0.00 0.00 73 1017.7
20240612113516 61 0.0 1.0 0.00 0.00 0.00 75 1017.7
20240612112516 60 0.0 1.0 0.00 0.00 0.00 75 1017.7
20240612111515 60 0.0 1.0 0.00 0.00 0.00 77 1017.5
20240612110515 60 0.0 0.0 0.00 0.00 0.00 78 1017.6
20240612105515 59 0.0 1.0 0.00 0.00 0.00 79 1017.6
20240612104516 59 0.0 1.0 0.00 0.00 0.00 78 1017.5
20240612103516 59 0.0 1.0 0.00 0.00 0.00 78 1017.4
20240612102515 59 0.0 0.0 0.00 0.00 0.00 78 1017.3
20240612101515 59 0.0 1.0 0.00 0.00 0.00 79 1017.1
20240612100515 58 0.0 1.0 0.00 0.00 0.00 77 1017.0
20240612095516 58 0.0 1.0 0.00 0.00 0.00 77 1016.9
20240612094516 58 0.0 0.0 0.00 0.00 0.00 77 1016.9
20240612093516 58 0.0 1.0 0.00 0.00 0.00 77 1016.9
20240612092515 58 0.0 1.0 0.00 0.00 0.00 77 1016.9
20240612091515 58 0.0 1.0 0.00 0.00 0.00 76 1016.8
20240612090515 58 0.0 0.0 0.00 0.00 0.00 76 1016.8
20240612085516 58 0.0 0.0 0.00 0.00 0.00 76 1016.7
20240612084516 58 0.0 1.0 0.00 0.00 0.00 77 1016.6
20240612083516 58 0.0 0.0 0.00 0.00 0.00 78 1016.6
20240612082516 58 0.0 1.0 0.00 0.00 0.00 79 1016.6
20240612082016 58 0.0 1.0 0.00 0.00 0.00 79 1016.5
20240612081016 58 0.0 1.0 0.00 0.00 0.00 78 1016.6
20240612080016 58 0.0 1.0 0.00 0.00 0.00 79 1016.5
20240612075016 57 0.0 0.0 0.00 0.00 0.00 79 1016.7
20240612074015 57 0.0 0.0 0.00 0.00 0.00 80 1016.6
20240612073015 57 0.0 0.0 0.00 0.00 0.00 80 1016.4
20240612072015 57 0.0 0.0 0.00 0.00 0.00 80 1016.4
20240612071016 57 0.0 0.0 0.00 0.00 0.00 79 1016.4
20240612070015 58 0.0 0.0 0.00 0.00 0.00 78 1016.6
20240612065015 58 0.0 0.0 0.00 0.00 0.00 77 1016.6
20240612064015 59 0.0 1.0 0.00 0.00 0.00 77 1016.7
20240612063016 59 0.0 0.0 0.00 0.00 0.00 76 1016.6
20240612062016 59 0.0 1.0 0.00 0.00 0.00 75 1016.6
20240612061015 60 0.0 0.0 0.00 0.00 0.00 75 1016.7
20240612060016 60 0.0 1.0 0.00 0.00 0.00 73 1016.7
20240612055016 60 0.0 1.0 0.00 0.00 0.00 73 1016.7
20240612054016 60 0.0 1.0 0.00 0.00 0.00 73 1016.7
20240612053016 60 0.0 1.0 0.00 0.00 0.00 73 1016.7
20240612052015 59 0.0 1.0 0.00 0.00 0.00 75 1016.7
20240612051015 59 0.0 1.0 0.00 0.00 0.00 76 1016.6
20240612050016 59 0.0 0.0 0.00 0.00 0.00 76 1016.5
20240612045016 59 0.0 1.0 0.00 0.00 0.00 75 1016.5
20240612044016 59 0.0 1.0 0.00 0.00 0.00 76 1016.5
20240612043016 59 0.0 1.0 0.00 0.00 0.00 76 1016.5
20240612042016 60 0.0 1.0 0.00 0.00 0.00 75 1016.4
20240612041016 59 0.0 1.0 0.00 0.00 0.00 76 1016.5
20240612040015 60 0.0 0.0 0.00 0.00 0.00 77 1016.5
20240612035016 60 0.0 1.0 0.00 0.00 0.00 76 1016.6
20240612034015 60 0.0 0.0 0.00 0.00 0.00 76 1016.5
20240612033016 61 0.0 0.0 0.00 0.00 0.00 73 1016.5
20240612032016 61 0.0 1.0 0.00 0.00 0.00 73 1016.3
20240612031016 61 0.0 1.0 0.00 0.00 0.00 72 1016.3
20240612030015 62 0.0 0.0 0.00 0.00 0.00 73 1016.2
20240612025015 62 0.0 1.0 0.00 0.00 0.00 71 1016.1
20240612024015 62 0.0 1.0 0.00 0.00 0.00 71 1016.1
20240612023015 62 0.0 2.0 0.00 0.00 0.00 70 1015.9
20240612022016 63 0.0 2.0 0.00 0.00 0.00 70 1015.8
20240612021016 63 0.0 2.0 0.00 0.00 0.00 69 1015.8
20240612020016 63 0.0 1.0 0.00 0.00 0.00 69 1015.8
20240612015016 63 0.0 2.0 0.00 0.00 0.00 69 1015.9
20240612014016 63 0.0 1.0 0.00 0.00 0.00 68 1015.8
20240612013015 63 0.0 1.0 0.00 0.00 0.00 68 1015.8
20240612012015 64 0.0 1.0 0.00 0.00 0.00 68 1015.5
20240612011016 64 0.0 0.0 0.00 0.00 0.00 67 1015.3
20240612010016 64 0.0 3.0 0.00 0.00 0.00 66 1015.1
20240612005016 64 0.0 1.0 0.00 0.00 0.00 65 1015.1
20240612004016 65 0.0 2.0 0.00 0.00 0.00 65 1015.2
20240612003016 65 0.0 1.0 0.00 0.00 0.00 64 1015.1
20240612002015 66 0.0 1.0 0.00 0.00 0.00 63 1015.1
20240612001015 66 0.0 1.0 0.00 0.00 0.00 63 1014.9
20240612000016 66 0.0 1.0 0.00 0.00 0.00 62 1014.9
20240611235015 66 0.0 1.0 0.00 0.00 0.00 62 1014.8
20240611234016 67 0.0 1.0 0.00 0.00 0.00 65 1014.6
20240611233016 66 0.0 2.0 0.00 0.00 0.00 63 1014.6
20240611232016 67 0.0 1.0 0.00 0.00 0.00 64 1014.6
20240611231016 67 0.0 1.0 0.00 0.00 0.00 63 1014.6
20240611230016 67 0.0 1.0 0.00 0.00 0.00 63 1014.5
20240611225015 67 0.0 1.0 0.00 0.00 0.00 62 1014.6
20240611224015 67 0.0 1.0 0.00 0.00 0.00 61 1014.6
20240611223016 67 0.0 2.0 0.00 0.00 0.00 59 1014.6
20240611222015 67 0.0 2.0 0.00 0.00 0.00 60 1014.5
20240611221015 68 0.0 1.0 0.00 0.00 0.00 60 1014.5
20240611220016 68 0.0 1.0 0.00 0.00 0.00 59 1014.4
20240611215016 68 0.0 1.0 0.00 0.00 0.00 58 1014.4
20240611214016 68 0.0 1.0 0.00 0.00 0.00 60 1014.4
20240611213015 68 0.0 1.0 0.00 0.00 0.00 59 1014.3
20240611212016 68 0.0 1.0 0.00 0.00 0.00 61 1014.3
20240611211016 68 0.0 2.0 0.00 0.00 0.00 57 1014.3
20240611210016 68 0.0 0.0 0.00 0.00 0.00 59 1014.3
20240611205015 68 0.0 0.0 0.00 0.00 0.00 57 1014.3
20240611204016 68 0.0 1.0 0.00 0.00 0.00 58 1014.3
20240611203016 68 0.0 2.0 0.00 0.00 0.00 61 1014.4
20240611202015 67 0.0 1.0 0.00 0.00 0.00 61 1014.5
20240611201016 68 0.0 1.0 0.00 0.00 0.00 57 1014.6
20240611200015 68 0.0 1.0 0.00 0.00 0.00 58 1014.5
20240611195015 67 0.0 1.0 0.00 0.00 0.00 58 1014.5
20240611194015 67 0.0 1.0 0.00 0.00 0.00 60 1014.6
20240611193016 67 0.0 1.0 0.00 0.00 0.00 61 1014.6
20240611192016 66 0.0 1.0 0.00 0.00 0.00 61 1014.6
20240611191016 66 0.0 1.0 0.00 0.00 0.00 64 1014.5
20240611190016 67 0.0 1.0 0.00 0.00 0.00 63 1014.6
20240611185016 66 0.0 1.0 0.00 0.00 0.00 64 1014.6
20240611184015 66 0.0 1.0 0.00 0.00 0.00 63 1014.5
20240611183016 66 0.0 1.0 0.00 0.00 0.00 63 1014.6
20240611182015 66 0.0 1.0 0.00 0.00 0.00 64 1014.6
20240611181015 66 0.0 1.0 0.00 0.00 0.00 63 1014.7
20240611180015 67 0.0 1.0 0.00 0.00 0.00 63 1014.6
20240611175016 67 0.0 1.0 0.00 0.00 0.00 62 1014.5
20240611174016 67 0.0 1.0 0.00 0.00 0.00 61 1014.5
20240611173016 67 0.0 1.0 0.00 0.00 0.00 60 1014.4
20240611172016 67 0.0 3.0 0.00 0.00 0.00 60 1014.3
20240611171016 67 0.0 0.0 0.00 0.00 0.00 61 1014.3
20240611170016 67 0.0 1.0 0.00 0.00 0.00 61 1014.2
20240611165015 67 0.0 1.0 0.00 0.00 0.00 62 1014.2
20240611164016 66 0.0 1.0 0.00 0.00 0.00 62 1014.3
20240611163016 66 0.0 1.0 0.00 0.00 0.00 61 1014.3
20240611162016 66 0.0 1.0 0.00 0.00 0.00 62 1014.3
20240611161015 66 0.0 1.0 0.00 0.00 0.00 65 1014.3
20240611160016 65 0.0 2.0 0.00 0.00 0.00 64 1014.3
20240611155016 65 0.0 1.0 0.00 0.00 0.00 65 1014.3
20240611154015 65 0.0 1.0 0.00 0.00 0.00 64 1014.2